Regional Weather Roundup
Issued by NWS

Current Version | Previous Version | Text Only | Print | Product List | Glossary On
Versions: 1 2 3 4 5 6 7 8 9 10 11 12 13 14 15 16 17 18 19 20 21 22 23 24 25 26 27 28 29 30 31 32 33 34 35 36 37 38 39 40 41 42 43 44 45 46 47 48 49 50
000
ASUS44 KLIX 231613
RWRLA
LOUISIANA WEATHER ROUNDUP
NATIONAL WEATHER SERVICE NEW ORLEANS LA
1100 AM CDT THU MAR 23 2017

NOTE: "FAIR" INDICATES FEW OR NO CLOUDS BELOW 12,000 FEET WITH NO
      SIGNIFICANT WEATHER AND/OR OBSTRUCTIONS TO VISIBILITY.
      SKY/WX - SKY CONDITION AND SIGNIFICANT WEATHER.
      TMP - AIR TEMPERATURE.    DP   - DEWPOINT TEMPERATURE.
      RH  - RELATIVE HUMIDITY.  PRES - PRESSURE.
      HX  - HEAT INDEX.         WCI  - WIND CHILL INDEX.

*  THESE STATIONS ARE NOT NWS OR FAA STATIONS AND ARE NOT UNDER
   NWS QUALITY CONTROL.

LAZ040-048-061>063-065-066-069-231700-
SOUTHEAST LOUISIANA

CITY           SKY/WX    TMP DP  RH WIND       PRES   REMARKS
N.O. INTL ARPT SUNNY     78  62  57 SE12      30.22R
N.O. LAKEFRONT SUNNY     77  61  57 SE15      30.23R
N.O. DOWNTOWN*   N/A     78  60  53 VRB3      30.23S
RESERVE*       FAIR      78  64  61 E3        30.22S
SLIDELL        SUNNY     76  56  49 SE7       30.23R
BATON ROUGE    SUNNY     75  59  57 SE8       30.22R
BOOTHVILLE     SUNNY     74  65  73 E7        30.23R
BELLE CHASSE   SUNNY     76  63  64 E13       30.22R
BOGALUSA*      FAIR      76  50  41 SE7       30.26S
GALLIANO*      SUNNY     76  66  69 SE8       30.22S
NEW ROADS*     FAIR      72  60  65 E6        30.22S
GONZALES*      FAIR      75  62  64 E6        30.21S
HAMMOND*       SUNNY     77  52  41 SE8       30.23S
HOUMA*         SUNNY     75  68  78 E7        30.22S
PORT FOURCHON* SUNNY     75  66  73 E10       30.22S

$$

LAZ041-044-053-054-231700-
SOUTHWEST LOUISIANA

CITY           SKY/WX    TMP DP  RH WIND       PRES   REMARKS
LAKE CHARLES   MOSUNNY   73  67  81 E6        30.20R
LAFAYETTE      SUNNY     77  64  64 NW5       30.20F
PATTERSON      SUNNY     74  65  73 MISG      30.21F
SALT POINT       N/A     74  65  73 CALM      30.20R
NEW IBERIA     SUNNY     76  63  64 N5        30.21S
CHENAULT AIRPK PTSUNNY   70  68  94 E5        30.21R

$$

LAZ027-028-231700-
CENTRAL LOUISIANA

CITY           SKY/WX    TMP DP  RH WIND       PRES   REMARKS
FORT POLK      SUNNY     74  61  63 SW8       30.19S
ALEXANDRIA INT SUNNY     70  61  73 S7        30.19F
ALEXANDRIA     MOSUNNY   72  63  73 SW7       30.21S

$$

LAZ001-002-231700-
NORTHWEST LOUISIANA

CITY           SKY/WX    TMP DP  RH WIND       PRES   REMARKS
SHREVEPORT     MOSUNNY   73  61  65 SE12      30.17F
BARKSDALE AFB  MOSUNNY   71  61  70 S10       30.17F
DTN SHREVEPORT MOSUNNY   71  60  68 S10       30.18S

$$

LAZ014-016-231700-
NORTHEAST LOUISIANA

CITY           SKY/WX    TMP DP  RH WIND       PRES   REMARKS
MONROE         SUNNY     73  55  53 S7        30.21F
TALLULAH       SUNNY     73  51  46 S9        30.23S

$$




USA.gov is the U.S. government's official web portal to all federal, state and local government web resources and services.